Time,TemperatureF,DewpointF,PressureIn,WindDirection,WindDirectionDegrees,WindSpeedMPH,WindSpeedGustMPH,Humidity,HourlyPrecipIn,Conditions,Clouds,dailyrainin,SoftwareType,DateUTC
2013-07-18 00:01:00,64.0,-99.9,29.93,North,350,0.0,2.0,0,-99.99,,,-99.99,,2013-07-18 07:01:00,
2013-07-18 00:22:00,64.0,-99.9,29.93,ESE,115,0.0,1.0,0,-99.99,,,-99.99,,2013-07-18 07:22:00,
2013-07-18 00:32:00,64.0,-99.9,29.93,ESE,115,0.0,1.0,0,-99.99,,,-99.99,,2013-07-18 07:32:00,
2013-07-18 03:32:00,61.0,-99.9,29.93,ESE,110,0.0,1.0,0,-99.99,,,-99.99,,2013-07-18 10:32:00,
2013-07-18 03:52:00,60.0,-99.9,29.93,SE,125,0.0,1.0,0,-99.99,,,-99.99,,2013-07-18 10:52:00,
2013-07-18 04:01:00,60.0,-99.9,29.93,ESE,115,0.0,2.0,0,-99.99,,,-99.99,,2013-07-18 11:01:00,
2013-07-18 04:32:00,60.0,-99.9,29.93,ESE,115,0.0,1.0,0,-99.99,,,-99.99,,2013-07-18 11:32:00,
2013-07-18 04:43:00,60.0,-99.9,29.93,ESE,115,0.0,1.0,0,-99.99,,,-99.99,,2013-07-18 11:43:00,
2013-07-18 04:52:00,60.0,-99.9,29.93,ESE,115,0.0,1.0,0,-99.99,,,-99.99,,2013-07-18 11:52:00,
2013-07-18 05:33:00,61.0,-99.9,29.94,SSE,150,0.0,1.0,0,-99.99,,,-99.99,,2013-07-18 12:33:00,
2013-07-18 05:42:00,60.0,-99.9,29.94,SSE,150,1.0,1.0,0,-99.99,,,-99.99,,2013-07-18 12:42:00,
2013-07-18 05:52:00,60.0,-99.9,29.94,SSE,150,1.0,1.0,0,-99.99,,,-99.99,,2013-07-18 12:52:00,
2013-07-18 06:01:00,60.0,-99.9,29.95,SSE,150,0.0,1.0,0,-99.99,,,-99.99,,2013-07-18 13:01:00,
2013-07-18 06:11:00,60.0,-99.9,29.95,SSE,150,0.0,1.0,0,-99.99,,,-99.99,,2013-07-18 13:11:00,
2013-07-18 06:22:00,58.0,-99.9,29.95,SSE,150,0.0,1.0,0,-99.99,,,-99.99,,2013-07-18 13:22:00,
2013-07-18 06:33:00,58.0,-99.9,29.95,SSE,150,0.0,0.0,0,-99.99,,,-99.99,,2013-07-18 13:33:00,
2013-07-18 06:53:00,60.0,-99.9,29.95,SSE,150,0.0,1.0,0,-99.99,,,-99.99,,2013-07-18 13:53:00,
2013-07-18 07:33:00,60.0,-99.9,29.96,SSE,150,0.0,0.0,0,-99.99,,,-99.99,,2013-07-18 14:33:00,
2013-07-18 07:53:00,59.0,-99.9,29.96,SSE,150,0.0,0.0,0,-99.99,,,-99.99,,2013-07-18 14:53:00,
2013-07-18 08:11:00,61.0,-99.9,29.96,SSE,150,0.0,0.0,0,-99.99,,,-99.99,,2013-07-18 15:11:00,
2013-07-18 08:53:00,68.0,-99.9,29.96,SSE,165,0.0,0.0,0,-99.99,,,-99.99,,2013-07-18 15:53:00,
2013-07-18 09:01:00,70.0,-99.9,29.96,SSE,165,0.0,0.0,0,-99.99,,,-99.99,,2013-07-18 16:01:00,
2013-07-18 09:12:00,70.0,-99.9,29.96,SSE,165,0.0,0.0,0,-99.99,,,-99.99,,2013-07-18 16:12:00,
2013-07-18 09:22:00,70.0,-99.9,29.96,WNW,295,0.0,2.0,0,-99.99,,,-99.99,,2013-07-18 16:22:00,
2013-07-18 09:32:00,70.0,-99.9,29.96,West,275,2.0,3.0,0,-99.99,,,-99.99,,2013-07-18 16:32:00,
2013-07-18 09:42:00,71.0,-99.9,29.96,WNW,285,3.0,5.0,0,-99.99,,,-99.99,,2013-07-18 16:42:00,
2013-07-18 09:52:00,71.0,-99.9,29.96,WNW,285,3.0,5.0,0,-99.99,,,-99.99,,2013-07-18 16:52:00,
2013-07-18 10:02:00,72.0,-99.9,29.95,NW,310,3.0,6.0,0,-99.99,,,-99.99,,2013-07-18 17:02:00,
2013-07-18 10:11:00,72.0,-99.9,29.95,NW,310,3.0,6.0,0,-99.99,,,-99.99,,2013-07-18 17:11:00,
2013-07-18 10:22:00,72.0,-99.9,29.95,NW,305,1.0,6.0,0,-99.99,,,-99.99,,2013-07-18 17:22:00,
2013-07-18 10:33:00,73.0,-99.9,29.95,North,350,2.0,8.0,0,-99.99,,,-99.99,,2013-07-18 17:33:00,
2013-07-18 10:43:00,74.0,-99.9,29.94,WSW,250,2.0,3.0,0,-99.99,,,-99.99,,2013-07-18 17:43:00,
2013-07-18 10:52:00,74.0,-99.9,29.94,WSW,250,2.0,3.0,0,-99.99,,,-99.99,,2013-07-18 17:52:00,
2013-07-18 11:22:00,75.0,-99.9,29.93,WNW,290,5.0,5.0,0,-99.99,,,-99.99,,2013-07-18 18:22:00,
2013-07-18 11:33:00,76.0,-99.9,29.94,WNW,295,9.0,9.0,0,-99.99,,,-99.99,,2013-07-18 18:33:00,
2013-07-18 11:43:00,77.0,-99.9,29.94,WNW,295,6.0,6.0,0,-99.99,,,-99.99,,2013-07-18 18:43:00,
2013-07-18 11:52:00,77.0,-99.9,29.94,WNW,295,6.0,6.0,0,-99.99,,,-99.99,,2013-07-18 18:52:00,
2013-07-18 12:02:00,78.0,-99.9,29.93,North,360,6.0,6.0,0,-99.99,,,-99.99,,2013-07-18 19:02:00,
2013-07-18 12:11:00,78.0,-99.9,29.93,North,360,6.0,6.0,0,-99.99,,,-99.99,,2013-07-18 19:11:00,
2013-07-18 12:22:00,79.0,-99.9,29.93,West,265,1.0,7.0,0,-99.99,,,-99.99,,2013-07-18 19:22:00,
2013-07-18 12:32:00,80.0,-99.9,29.93,NNW,345,1.0,10.0,0,-99.99,,,-99.99,,2013-07-18 19:32:00,
2013-07-18 12:43:00,80.0,-99.9,29.93,NNW,345,1.0,10.0,0,-99.99,,,-99.99,,2013-07-18 19:43:00,
2013-07-18 12:53:00,81.0,-99.9,29.93,NW,325,2.0,6.0,0,-99.99,,,-99.99,,2013-07-18 19:53:00,
2013-07-18 13:02:00,81.0,-99.9,29.92,NNW,335,3.0,10.0,0,-99.99,,,-99.99,,2013-07-18 20:02:00,
2013-07-18 13:11:00,81.0,-99.9,29.92,NNW,335,3.0,10.0,0,-99.99,,,-99.99,,2013-07-18 20:11:00,
2013-07-18 13:43:00,83.0,-99.9,29.91,NNW,330,3.0,10.0,0,-99.99,,,-99.99,,2013-07-18 20:43:00,
2013-07-18 13:52:00,83.0,-99.9,29.91,NNW,330,3.0,10.0,0,-99.99,,,-99.99,,2013-07-18 20:52:00,
2013-07-18 14:01:00,84.0,-99.9,29.90,North,350,5.0,8.0,0,-99.99,,,-99.99,,2013-07-18 21:01:00,
2013-07-18 14:22:00,85.0,-99.9,29.90,NNW,330,7.0,12.0,0,-99.99,,,-99.99,,2013-07-18 21:22:00,
2013-07-18 14:32:00,85.0,-99.9,29.90,WNW,300,2.0,5.0,0,-99.99,,,-99.99,,2013-07-18 21:32:00,
2013-07-18 15:01:00,85.0,-99.9,29.89,WNW,285,3.0,12.0,0,-99.99,,,-99.99,,2013-07-18 22:01:00,
2013-07-18 15:11:00,85.0,-99.9,29.89,WNW,285,3.0,12.0,0,-99.99,,,-99.99,,2013-07-18 22:11:00,
2013-07-18 15:22:00,86.0,-99.9,29.88,West,275,2.0,7.0,0,-99.99,,,-99.99,,2013-07-18 22:22:00,
2013-07-18 15:43:00,87.0,-99.9,29.88,WNW,300,5.0,8.0,0,-99.99,,,-99.99,,2013-07-18 22:43:00,
2013-07-18 15:53:00,88.0,-99.9,29.87,WNW,300,5.0,9.0,0,-99.99,,,-99.99,,2013-07-18 22:53:00,
2013-07-18 16:02:00,88.0,-99.9,29.87,WNW,300,5.0,9.0,0,-99.99,,,-99.99,,2013-07-18 23:02:00,
2013-07-18 16:22:00,88.0,-99.9,29.86,NW,325,3.0,10.0,0,-99.99,,,-99.99,,2013-07-18 23:22:00,
2013-07-18 16:32:00,88.0,-99.9,29.86,NW,325,2.0,13.0,0,-99.99,,,-99.99,,2013-07-18 23:32:00,
2013-07-18 16:42:00,88.0,-99.9,29.86,WNW,285,5.0,13.0,0,-99.99,,,-99.99,,2013-07-18 23:42:00,
2013-07-18 16:52:00,88.0,-99.9,29.86,WNW,285,5.0,13.0,0,-99.99,,,-99.99,,2013-07-18 23:52:00,
2013-07-18 17:11:00,88.0,-99.9,29.85,WNW,300,3.0,10.0,0,-99.99,,,-99.99,,2013-07-19 00:11:00,
2013-07-18 17:22:00,88.0,-99.9,29.85,WNW,300,6.0,12.0,0,-99.99,,,-99.99,,2013-07-19 00:22:00,
2013-07-18 17:32:00,88.0,-99.9,29.85,WNW,300,6.0,12.0,0,-99.99,,,-99.99,,2013-07-19 00:32:00,
2013-07-18 17:43:00,88.0,-99.9,29.84,NNW,345,5.0,8.0,0,-99.99,,,-99.99,,2013-07-19 00:43:00,
2013-07-18 17:52:00,88.0,-99.9,29.84,NNW,345,5.0,8.0,0,-99.99,,,-99.99,,2013-07-19 00:52:00,
2013-07-18 18:11:00,88.0,-99.9,29.84,NNE,15,5.0,8.0,0,-99.99,,,-99.99,,2013-07-19 01:11:00,
2013-07-18 18:32:00,88.0,-99.9,29.84,NW,320,3.0,9.0,0,-99.99,,,-99.99,,2013-07-19 01:32:00,
2013-07-18 18:42:00,88.0,-99.9,29.84,NW,320,3.0,9.0,0,-99.99,,,-99.99,,2013-07-19 01:42:00,
2013-07-18 18:52:00,88.0,-99.9,29.83,North,10,6.0,10.0,0,-99.99,,,-99.99,,2013-07-19 01:52:00,
2013-07-18 19:02:00,87.0,-99.9,29.83,NW,310,3.0,10.0,0,-99.99,,,-99.99,,2013-07-19 02:02:00,
2013-07-18 19:11:00,87.0,-99.9,29.83,NW,310,3.0,10.0,0,-99.99,,,-99.99,,2013-07-19 02:11:00,
2013-07-18 19:32:00,86.0,-99.9,29.83,NW,315,5.0,12.0,0,-99.99,,,-99.99,,2013-07-19 02:32:00,
2013-07-18 19:52:00,86.0,-99.9,29.83,NNW,330,3.0,10.0,0,-99.99,,,-99.99,,2013-07-19 02:52:00,
2013-07-18 20:11:00,86.0,-99.9,29.83,NNW,335,5.0,13.0,0,-99.99,,,-99.99,,2013-07-19 03:11:00,
2013-07-18 20:22:00,84.0,-99.9,29.84,NNE,15,5.0,15.0,0,-99.99,,,-99.99,,2013-07-19 03:22:00,
2013-07-18 20:32:00,83.0,-99.9,29.84,WNW,300,5.0,10.0,0,-99.99,,,-99.99,,2013-07-19 03:32:00,
2013-07-18 20:43:00,83.0,-99.9,29.84,WNW,300,5.0,10.0,0,-99.99,,,-99.99,,2013-07-19 03:43:00,
2013-07-18 20:52:00,82.0,-99.9,29.84,North,355,12.0,12.0,0,-99.99,,,-99.99,,2013-07-19 03:52:00,
2013-07-18 21:02:00,81.0,-99.9,29.85,North,5,12.0,12.0,0,-99.99,,,-99.99,,2013-07-19 04:02:00,
2013-07-18 21:12:00,81.0,-99.9,29.85,North,5,12.0,12.0,0,-99.99,,,-99.99,,2013-07-19 04:12:00,
2013-07-18 21:22:00,78.0,-99.9,29.86,NW,320,3.0,10.0,0,-99.99,,,-99.99,,2013-07-19 04:22:00,
2013-07-18 21:44:00,77.0,-99.9,29.86,NW,305,1.0,10.0,0,-99.99,,,-99.99,,2013-07-19 04:44:00,
2013-07-18 21:52:00,75.0,-99.9,29.87,NNW,330,2.0,8.0,0,-99.99,,,-99.99,,2013-07-19 04:52:00,
2013-07-18 22:02:00,74.0,-99.9,29.88,North,360,1.0,5.0,0,-99.99,,,-99.99,,2013-07-19 05:02:00,
2013-07-18 22:12:00,74.0,-99.9,29.88,North,360,1.0,5.0,0,-99.99,,,-99.99,,2013-07-19 05:12:00,
2013-07-18 22:22:00,72.0,-99.9,29.89,North,360,1.0,3.0,0,-99.99,,,-99.99,,2013-07-19 05:22:00,
2013-07-18 22:32:00,72.0,-99.9,29.89,WNW,290,1.0,3.0,0,-99.99,,,-99.99,,2013-07-19 05:32:00,
2013-07-18 22:53:00,69.0,-99.9,29.90,NNW,330,1.0,3.0,0,-99.99,,,-99.99,,2013-07-19 05:53:00,
2013-07-18 23:01:00,68.0,-99.9,29.90,NW,310,1.0,2.0,0,-99.99,,,-99.99,,2013-07-19 06:01:00,
2013-07-18 23:11:00,68.0,-99.9,29.90,NW,310,1.0,2.0,0,-99.99,,,-99.99,,2013-07-19 06:11:00,
2013-07-18 23:22:00,67.0,-99.9,29.90,NW,305,0.0,3.0,0,-99.99,,,-99.99,,2013-07-19 06:22:00,
2013-07-18 23:33:00,66.0,-99.9,29.90,NNW,330,1.0,3.0,0,-99.99,,,-99.99,,2013-07-19 06:33:00,
2013-07-18 23:53:00,66.0,-99.9,29.90,NNE,15,2.0,2.0,0,-99.99,,,-99.99,,2013-07-19 06:53:00,